[[{"header":{"parameterUnit":"m.s-1","parameterCategory":1,"la1":30.2991,"la2":30.254,"lo1":-89.0895,"lo2":-89.0444,"dy":0.0017,"dx":0.0017,"nx":28,"ny":28,"refTime":"2024-02-06T03:00:00:Z","depth":0,"parameterNumber":2,"parameterNumberName":"U-component_of_WINDS"},"data":[0,0,0,0,0,0,0,0,0,0,0,0,0,0,0,0,0,0,0,0,0,0,0,0,0,0,0,0,0,0,0,0,0,0,0,0,0,0,0,0,0,0,0,0,0,0,0,0,0,0,0,0,0,0,0,0,0,0,2.0551,2.0552,0,2.0602,2.0603,2.0604,2.0575,2.0574,2.0573,2.0571,2.0624,2.0627,2.063,0,0,0,0,0,0,0,0,0,0,0,0,0,2.0432,2.0434,2.0551,2.0552,2.0552,2.0602,2.0603,2.0604,2.0576,2.0574,2.0572,2.0571,2.0623,2.0627,2.063,0,0,0,0,0,0,0,0,0,0,0,0,0,2.0484,2.0435,2.0551,2.0544,2.0544,2.0602,2.0603,2.0604,2.0576,2.0574,2.0572,2.057,2.0622,2.0626,2.063,2.0698,0,0,2.0643,2.0645,0,0,0,0,0,0,0,0,2.0481,2.0488,2.0545,2.0545,2.0545,2.058,2.058,2.0635,2.0576,2.0564,2.0571,2.0569,2.0611,2.0616,2.063,2.07,2.0703,2.0643,2.0646,2.0647,2.0649,0,0,0,0,0,0,0,2.0477,2.0486,2.0571,2.0546,2.0546,2.054,2.0545,2.0591,2.0599,2.0565,2.0563,2.0569,2.0611,2.0627,2.0632,2.0703,2.0643,2.0647,2.0649,2.0651,2.0835,2.0837,0,0,0,0,0,0,2.0474,2.0483,2.057,2.0573,2.0507,2.0544,2.0549,2.0571,2.0598,2.06,2.0571,2.0568,2.0621,2.0627,2.0633,2.0717,2.0647,2.0651,2.0654,2.0833,2.0836,2.0838,0,0,0,0,0,0,2.0471,2.0482,2.0568,2.0527,2.0538,2.0548,2.0573,2.0573,2.0589,2.0603,2.0605,2.0585,2.0619,2.0628,2.0683,2.0718,2.0653,2.0657,2.083,2.0834,2.0837,2.0883,0,0,0,0,0,0,2.0468,2.0481,2.0506,2.0528,2.054,2.0616,2.0575,2.0576,2.0596,2.0592,2.0617,2.0619,2.0618,2.0677,2.0687,2.0723,2.066,2.0827,2.0832,2.0836,2.0878,2.0888,2.0896,0,0,0,0,0,2.0464,2.0516,2.0507,2.0518,2.0571,2.0618,2.0625,2.0623,2.0599,2.0625,2.0634,2.0618,2.0713,2.0683,2.0694,2.0731,2.0825,2.083,2.0836,2.0874,2.0886,2.0896,0,0,0,0,0,0,2.0497,2.0519,2.0509,2.057,2.0592,2.0613,2.0645,2.0634,2.0664,2.0659,2.0656,2.0662,2.072,2.0731,2.0697,2.08,2.0765,2.0773,2.0791,2.0802,2.081,2.0807,2.0663,0,0,0,0,0,2.0511,2.0547,2.0564,2.0616,2.0628,2.0635,2.0655,2.0652,2.0675,2.0684,2.0697,2.0721,2.0756,2.0779,2.0812,2.088,2.0886,2.0911,2.092,2.0927,2.0934,2.0974,2.0986,2.0856,2.0856,2.0856,0,0,2.0542,2.0558,2.058,2.0623,2.064,2.0678,2.0643,2.0683,2.0712,2.069,2.0744,2.0755,2.0781,2.0844,2.0872,2.0855,2.0972,2.0934,2.0939,2.0943,2.0981,2.0993,2.1004,2.086,2.0859,2.0859,0,0,2.0617,2.0631,2.0678,2.0696,2.0723,2.0727,2.0739,2.0762,2.0768,2.0822,2.0808,2.0842,2.0902,2.0922,2.094,2.1026,2.1013,2.1037,2.1083,2.1122,2.1132,2.1141,2.1174,2.1186,2.1044,2.1044,2.1044,0,2.0651,2.0707,2.0703,2.0747,2.0767,2.0749,2.0798,2.0816,2.0852,2.0867,2.0847,2.0925,2.094,2.1009,2.1031,2.1045,2.106,2.1034,2.1131,2.114,2.1148,2.118,2.1192,2.1047,2.1047,2.1046,2.1046,0,2.0749,2.0788,2.0823,2.0859,2.0884,2.0929,2.0934,2.096,2.0955,2.0962,2.1019,2.1038,2.1076,2.1092,2.1087,2.1161,2.115,2.1131,2.1096,2.1164,2.1194,2.1206,2.1051,2.105,2.1049,2.1048,0,0,2.0846,2.0881,2.0894,2.0912,2.0941,2.0972,2.1018,2.1055,2.1079,2.1104,2.1144,2.1197,2.118,2.1201,2.1198,2.1232,2.1303,2.1209,2.1209,2.1228,2.1389,2.1405,2.1419,2.1294,2.1296,2.1298,2.1388,0,2.0924,2.1004,2.1004,2.1079,2.1117,2.1102,2.1142,2.1165,2.1174,2.1208,2.1218,2.1257,2.123,2.1243,2.1275,2.1287,2.1336,2.1281,2.1333,2.1335,2.1329,2.1434,2.1451,2.1534,2.1399,2.1401,2.1403,0,2.1026,2.1057,2.1136,2.1163,2.1179,2.1215,2.1251,2.1283,2.131,2.1314,2.1339,2.1332,2.1381,2.1344,2.1412,2.1375,2.1397,2.1406,2.1409,2.1416,2.1374,2.1446,2.156,2.1574,2.142,2.1419,2.1418,0,2.1093,2.1153,2.1209,2.1224,2.1256,2.1282,2.1297,2.1322,2.1345,2.1377,2.1393,2.143,2.1451,2.148,2.1484,2.1456,2.1554,2.1517,2.1561,2.1561,2.1583,2.1582,2.1705,2.1594,2.1594,2.1593,2.1593,0,2.1182,2.1231,2.124,2.1274,2.133,2.133,2.1385,2.1398,2.1421,2.1458,2.1447,2.1483,2.1486,2.1523,2.1527,2.1585,2.1593,2.1599,2.16,2.1602,2.1601,2.1617,2.1612,2.1597,2.1596,2.1595,2.1595,0,2.1265,2.1272,2.1333,2.1358,2.1366,2.1407,2.1429,2.1463,2.1471,2.152,2.1531,2.1545,2.1589,2.1595,2.1646,2.1649,2.1719,2.1713,2.1711,2.171,2.1755,2.1752,2.1894,2.1914,2.1788,2.1789,2.179,0,2.1322,2.136,2.1391,2.1416,2.1432,2.1471,2.1496,2.1498,2.1525,2.156,2.159,2.1633,2.1668,2.1739,2.1754,2.1794,2.179,2.1837,2.1795,2.1797,2.1793,2.1792,2.1797,2.1845,2.1847,2.1848,2.1849,0,2.1424,2.1427,2.1462,2.1501,2.1531,2.1561,2.159,2.1611,2.1617,2.1647,2.1693,2.1719,2.1773,2.1817,2.1857,2.1873,2.1863,2.1862,2.1874,2.1877,2.1875,2.188,2.1735,2.1858,2.1858,2.1857,2.1856,2.1856,2.1498,2.1532,2.156,2.1601,2.1623,2.1651,2.1685,2.1699,2.1736,2.178,2.1779,2.1829,2.1858,2.1911,2.193,2.1971,2.1955,2.1973,2.1978,2.1983,2.1989,2.1868,2.1978,2.1977,2.1977,2.1977,2.1977,0,2.1602,2.1619,2.1657,2.1698,2.1732,2.1719,2.1751,2.178,2.1824,2.1852,2.1887,2.194,2.1983,2.2002,2.2045,2.2074,2.2071,2.2085,2.2084,2.2089,2.1999,2.1984,2.2088,2.2088,2.2088,2.2088,2.2087,2.2087,2.166,2.1718,2.1724,2.1795,2.1812,2.1861,2.1881,2.1907,2.193,2.199,2.2026,2.2038,2.2063,2.2108,2.2148,2.2153,2.217,2.2187,2.219,2.2106,2.2095,2.2084,2.2071,2.2191,2.2191,2.2277,2.2278,2.2279]},{"header":{"parameterUnit":"m.s-1","parameterCategory":1,"la1":30.2991,"la2":30.254,"lo1":-89.0895,"lo2":-89.0444,"dy":0.0017,"dx":0.0017,"nx":28,"ny":28,"refTime":"2024-02-06T03:00:00:Z","depth":0,"parameterNumber":3,"parameterNumberName":"V-component_of_WINDS"},"data":[0,0,0,0,0,0,0,0,0,0,0,0,0,0,0,0,0,0,0,0,0,0,0,0,0,0,0,0,0,0,0,0,0,0,0,0,0,0,0,0,0,0,0,0,0,0,0,0,0,0,0,0,0,0,0,0,0,0,-2.4213,-2.4214,0,-2.4291,-2.4292,-2.4293,-2.4339,-2.4339,-2.4339,-2.4339,-2.4416,-2.4418,-2.442,0,0,0,0,0,0,0,0,0,0,0,0,0,-2.4106,-2.4108,-2.4213,-2.4214,-2.4215,-2.4291,-2.4292,-2.4293,-2.4339,-2.4339,-2.4339,-2.4339,-2.4415,-2.4418,-2.442,0,0,0,0,0,0,0,0,0,0,0,0,0,-2.4165,-2.4108,-2.4213,-2.4247,-2.4251,-2.4291,-2.4292,-2.4293,-2.4339,-2.4339,-2.4339,-2.4339,-2.4415,-2.4417,-2.442,-2.4431,0,0,-2.4429,-2.443,0,0,0,0,0,0,0,0,-2.4162,-2.4169,-2.4241,-2.4245,-2.4249,-2.4306,-2.4282,-2.4339,-2.4338,-2.4305,-2.4339,-2.434,-2.4379,-2.4385,-2.4398,-2.4435,-2.4438,-2.4429,-2.4431,-2.4432,-2.4433,0,0,0,0,0,0,0,-2.4157,-2.4166,-2.4244,-2.4242,-2.4247,-2.4259,-2.4268,-2.4293,-2.4339,-2.4308,-2.4312,-2.432,-2.4381,-2.4396,-2.4401,-2.4439,-2.4429,-2.4431,-2.4433,-2.4434,-2.4494,-2.4494,0,0,0,0,0,0,-2.4148,-2.4162,-2.4241,-2.4246,-2.4205,-2.4261,-2.4271,-2.4287,-2.4339,-2.4347,-2.432,-2.4322,-2.4391,-2.4397,-2.4403,-2.4424,-2.4432,-2.4434,-2.4436,-2.4494,-2.4494,-2.4494,0,0,0,0,0,0,-2.4146,-2.4155,-2.4238,-2.4205,-2.4217,-2.4262,-2.4281,-2.4288,-2.4303,-2.4348,-2.4357,-2.4326,-2.4391,-2.4399,-2.4425,-2.4427,-2.4436,-2.4438,-2.4495,-2.4494,-2.4494,-2.4461,0,0,0,0,0,0,-2.4142,-2.4153,-2.4157,-2.4205,-2.4218,-2.4258,-2.428,-2.429,-2.4308,-2.4312,-2.4356,-2.4364,-2.4392,-2.4421,-2.4428,-2.4431,-2.444,-2.4495,-2.4495,-2.4494,-2.4462,-2.446,-2.4458,0,0,0,0,0,-2.4138,-2.4143,-2.4157,-2.4166,-2.4224,-2.4258,-2.4266,-2.4299,-2.4308,-2.4313,-2.4343,-2.4363,-2.4425,-2.4423,-2.4432,-2.4435,-2.4495,-2.4495,-2.4494,-2.4463,-2.446,-2.4458,0,0,0,0,0,0,-2.4091,-2.4149,-2.4166,-2.4186,-2.4217,-2.4266,-2.4273,-2.4294,-2.4322,-2.4324,-2.4363,-2.4373,-2.4396,-2.4418,-2.4415,-2.4451,-2.4463,-2.4464,-2.4436,-2.4434,-2.4431,-2.4426,-2.4443,0,0,0,0,0,-2.4084,-2.4107,-2.4156,-2.4169,-2.4184,-2.4226,-2.4242,-2.4265,-2.4299,-2.4312,-2.4343,-2.4374,-2.4402,-2.4419,-2.4446,-2.4466,-2.4478,-2.4473,-2.4471,-2.4469,-2.447,-2.4487,-2.4486,-2.4494,-2.4494,-2.4494,0,0,-2.4067,-2.4102,-2.4113,-2.4161,-2.4188,-2.4212,-2.4236,-2.4259,-2.4278,-2.4315,-2.4342,-2.4367,-2.4405,-2.4429,-2.4442,-2.4448,-2.4471,-2.4468,-2.4466,-2.4469,-2.4486,-2.4486,-2.4485,-2.4494,-2.4494,-2.4494,0,0,-2.405,-2.4078,-2.4094,-2.4122,-2.4164,-2.4192,-2.4196,-2.4243,-2.4262,-2.4291,-2.432,-2.4344,-2.4388,-2.4416,-2.4436,-2.4436,-2.4457,-2.4444,-2.4432,-2.4448,-2.4448,-2.4447,-2.4451,-2.4451,-2.4445,-2.4445,-2.4445,0,-2.4024,-2.4062,-2.4099,-2.4123,-2.4144,-2.4182,-2.42,-2.4225,-2.4272,-2.4287,-2.4294,-2.4356,-2.4383,-2.4417,-2.4418,-2.4432,-2.444,-2.4439,-2.4445,-2.4445,-2.4445,-2.4449,-2.445,-2.4443,-2.4443,-2.4443,-2.4443,0,-2.403,-2.4056,-2.4064,-2.4113,-2.4136,-2.4156,-2.4198,-2.4216,-2.4239,-2.4268,-2.4299,-2.4335,-2.4372,-2.4382,-2.4403,-2.442,-2.4424,-2.4437,-2.445,-2.4442,-2.4447,-2.4448,-2.4441,-2.4441,-2.4442,-2.4442,0,0,-2.3982,-2.4056,-2.4058,-2.4083,-2.4135,-2.4156,-2.418,-2.4219,-2.4235,-2.4268,-2.4291,-2.4331,-2.4346,-2.4369,-2.4394,-2.4408,-2.4411,-2.4421,-2.4422,-2.442,-2.4437,-2.4427,-2.4428,-2.4425,-2.4425,-2.4426,-2.4434,0,-2.3975,-2.402,-2.4057,-2.4089,-2.4116,-2.4155,-2.4176,-2.4211,-2.4239,-2.4267,-2.4298,-2.4328,-2.4343,-2.4358,-2.4374,-2.4407,-2.4415,-2.4407,-2.4448,-2.4449,-2.4439,-2.443,-2.4418,-2.4425,-2.4436,-2.4436,-2.4436,0,-2.3971,-2.4006,-2.4041,-2.4096,-2.4108,-2.4126,-2.4168,-2.4193,-2.4235,-2.4255,-2.4284,-2.4311,-2.434,-2.435,-2.4393,-2.4387,-2.4406,-2.4426,-2.4427,-2.4433,-2.4443,-2.4437,-2.4427,-2.4429,-2.4439,-2.4438,-2.4438,0,-2.3937,-2.3992,-2.4022,-2.4042,-2.4104,-2.4118,-2.4144,-2.4186,-2.4209,-2.4246,-2.4262,-2.43,-2.4321,-2.4351,-2.439,-2.4393,-2.443,-2.4441,-2.4449,-2.4448,-2.4455,-2.4454,-2.4449,-2.4464,-2.4464,-2.4464,-2.4464,0,-2.3925,-2.3946,-2.4009,-2.4027,-2.4053,-2.4097,-2.4121,-2.4151,-2.4189,-2.4216,-2.4251,-2.4274,-2.4323,-2.4353,-2.4383,-2.4416,-2.4425,-2.4443,-2.4451,-2.4441,-2.4439,-2.4455,-2.4456,-2.4465,-2.4465,-2.4464,-2.4464,0,-2.389,-2.3933,-2.3969,-2.4027,-2.4042,-2.4059,-2.411,-2.413,-2.4163,-2.4196,-2.4206,-2.4257,-2.4295,-2.4336,-2.4387,-2.4408,-2.444,-2.445,-2.4426,-2.4431,-2.4437,-2.4437,-2.4444,-2.4449,-2.4458,-2.4458,-2.4458,0,-2.388,-2.3898,-2.396,-2.3981,-2.4008,-2.404,-2.4066,-2.411,-2.4135,-2.4188,-2.4202,-2.4244,-2.4279,-2.4339,-2.4381,-2.4421,-2.4434,-2.4434,-2.444,-2.4431,-2.4437,-2.4437,-2.444,-2.4432,-2.4431,-2.4431,-2.4431,0,-2.386,-2.3882,-2.3916,-2.3961,-2.399,-2.4026,-2.4064,-2.4079,-2.4132,-2.4158,-2.4199,-2.4227,-2.4283,-2.4324,-2.4371,-2.4399,-2.4425,-2.4429,-2.4434,-2.4424,-2.441,-2.4421,-2.4423,-2.4428,-2.4429,-2.4429,-2.4429,-2.4429,-2.3839,-2.3859,-2.3907,-2.3946,-2.398,-2.4016,-2.404,-2.4077,-2.4112,-2.4162,-2.4187,-2.4228,-2.4275,-2.4341,-2.4369,-2.4403,-2.4411,-2.4416,-2.4418,-2.4419,-2.4418,-2.4404,-2.4412,-2.4412,-2.4412,-2.4412,-2.4412,0,-2.3823,-2.3857,-2.3893,-2.3947,-2.3979,-2.4002,-2.4046,-2.4072,-2.4108,-2.415,-2.4186,-2.4235,-2.4278,-2.4325,-2.437,-2.4389,-2.4402,-2.4399,-2.4399,-2.4406,-2.4407,-2.44,-2.4388,-2.4388,-2.4388,-2.4388,-2.4388,-2.4388,-2.3818,-2.3854,-2.3882,-2.3937,-2.3971,-2.4014,-2.4038,-2.4072,-2.4106,-2.4161,-2.4197,-2.4228,-2.4273,-2.4323,-2.4364,-2.4377,-2.4393,-2.4387,-2.4404,-2.4403,-2.4405,-2.4407,-2.4401,-2.439,-2.439,-2.4401,-2.4401,-2.4401]}]]